Tracking 23581 objects as of 27-Jul-2021
HD Live streaming from Space Station
objects crossing your sky now

CARTOSAT-1

Track CARTOSAT-1 now!
10-day predictions
CARTOSAT-1 is classified as:


NORAD ID: 28649
Int'l Code: 2005-017A
Perigee: 623.3 km
Apogee: 625.7 km
Inclination: 97.8 °
Period: 97.0 minutes
Semi major axis: 6995 km
RCS: 4.7551 m2 (large)
Launch date: May 5, 2005
Source: India (IND)
Launch site: SRIHARIKOTA (SRI)

Remote sensing and mapping, land use, forest cover, river flow assessments.
aabbcc
Your satellite tracking list
Your tracking list is empty




NASA's NSSDC Master Catalog

Two Line Element Set (TLE):
1 28649U 05017A   21207.52880300  .00000100  00000-0  18335-4 0  9995
2 28649  97.7657 272.6350 0001683 142.8978 217.2353 14.83804512878400
Source of the keplerian elements: AFSPC